Patuxent River, MD

1:34 AM EDT on June 19, 2018 (GMT -0400)
Patuxent River Naval Air Station

Weather History for KNHK - August, 2017

Change the Weather History Date:

Sunday, August 13, 2017

  Actual Average Record
Temperature  
Mean Temperature 74 °F -  
Max Temperature 82 °F 84 °F 97 °F (2016)
Min Temperature 66 °F 68 °F 57 °F (2006)
Cooling Degree Days 9    
Growing Degree Days 24 (Base 50)    
Moisture  
Dew Point 67 °F    
Average Humidity 81    
Maximum Humidity 100    
Minimum Humidity 54    
Precipitation  
Precipitation 0.02 in - - ()
Sea Level Pressure  
Sea Level Pressure 29.97 in    
Wind  
Wind Speed 8 mph (NW)    
Max Wind Speed 13 mph    
Max Gust Speed -    
Visibility 10 miles    
Events Rain    
Averages and records for this station are not official NWS values.
T = Trace of Precipitation, MM = Missing Value Source: NWS Daily Summary

Daily Weather History Graph

Daily Weather History Graph

Search for Another Location

Airport or City:

Astronomy

Aug. 13, 2017 Rise Set
Actual Time 6:18 AM EDT 8:01 PM EDT
Civil Twilight 5:50 AM EDT 8:29 PM EDT
Nautical Twilight 5:16 AM EDT 9:03 PM EDT
Astronomical Twilight 4:39 AM EDT 9:40 PM EDT
Moon 11:39 PM EDT (8/13) 12:11 PM EDT (8/13)
Length of Visible Light 14h 39m
Length of Day
13h 42m
Waning Gibbous, 65% of the Moon is Illuminated
Aug 13
Waning Gibbous
Aug 14
Last Quarter
Aug 21
New
Aug 29
First Quarter
Sep 6
Full

Hourly Weather History & Observations

Time (EDT) Temp. Heat Index Dew Point Humidity Pressure Visibility Wind Dir Wind Speed Gust Speed Precip Events Conditions
12:52 AM 70.0 °F - 70.0 °F 100% 29.90 in 10.0 mi WSW 5.8 mph - 0.00 in   Overcast
1:52 AM 71.1 °F - 70.0 °F 96% 29.88 in 10.0 mi West 5.8 mph - 0.02 in Rain Light Rain
2:52 AM 71.1 °F - 70.0 °F 96% 29.88 in 10.0 mi WNW 10.4 mph - 0.00 in   Mostly Cloudy
3:52 AM 71.1 °F - 71.1 °F 100% 29.88 in 10.0 mi WNW 9.2 mph - N/A   Mostly Cloudy
4:52 AM 71.1 °F - 71.1 °F 100% 29.89 in 10.0 mi NW 10.4 mph - N/A   Clear
5:52 AM 72.0 °F - 69.1 °F 91% 29.92 in 10.0 mi NNW 12.7 mph - N/A   Clear
6:52 AM 71.1 °F - 68.0 °F 90% 29.94 in 10.0 mi NW 10.4 mph - 0.00 in   Mostly Cloudy
7:15 AM 71.1 °F - 68.0 °F 90% 29.94 in 10.0 mi NNW 9.2 mph - N/A   Mostly Cloudy
7:52 AM 71.1 °F - 66.9 °F 87% 29.95 in 10.0 mi NNW 11.5 mph - N/A   Mostly Cloudy
8:52 AM 73.0 °F - 66.9 °F 81% 29.97 in 10.0 mi NNW 11.5 mph - N/A   Mostly Cloudy
9:52 AM 75.0 °F - 66.9 °F 76% 29.99 in 10.0 mi North 12.7 mph - N/A   Mostly Cloudy
10:52 AM 77.0 °F - 66.0 °F 69% 29.99 in 10.0 mi North 9.2 mph - N/A   Mostly Cloudy
11:52 AM 75.9 °F - 66.9 °F 74% 30.00 in 10.0 mi NNW 9.2 mph - N/A   Mostly Cloudy
12:52 PM 79.0 °F - 66.9 °F 66% 30.00 in 10.0 mi NW 4.6 mph - N/A   Mostly Cloudy
1:52 PM 80.1 °F 82.3 °F 66.9 °F 64% 30.00 in 10.0 mi NNW 5.8 mph - N/A   Mostly Cloudy
2:52 PM 82.0 °F 83.4 °F 64.0 °F 54% 30.00 in 10.0 mi NNE 5.8 mph - N/A   Mostly Cloudy
3:52 PM 81.0 °F 82.2 °F 63.0 °F 54% 29.99 in 10.0 mi NE 8.1 mph - N/A   Mostly Cloudy
4:52 PM 79.0 °F - 64.0 °F 60% 30.00 in 10.0 mi NNE 6.9 mph - N/A   Mostly Cloudy
5:52 PM 81.0 °F 82.5 °F 64.0 °F 56% 29.99 in 10.0 mi North 5.8 mph - N/A   Mostly Cloudy
6:52 PM 80.1 °F 81.2 °F 62.1 °F 54% 30.00 in 10.0 mi North 3.5 mph - N/A   Clear
7:52 PM 75.0 °F - 66.0 °F 73% 30.01 in 10.0 mi NE 3.5 mph - N/A   Clear
8:52 PM 68.0 °F - 66.0 °F 93% 30.01 in 10.0 mi WSW 3.5 mph - N/A   Clear
9:52 PM 66.9 °F - 66.0 °F 97% 30.02 in 10.0 mi West 3.5 mph - N/A   Clear
10:52 PM 66.9 °F - 66.0 °F 97% 30.02 in 10.0 mi West 4.6 mph - N/A   Clear
11:52 PM 66.0 °F - 66.0 °F 100% 30.03 in 10.0 mi West 3.5 mph - N/A   Clear